Home > Weather > Fort Simpson > Past weeks

Flag for Canada Weather for the Past 2 Weeks in Fort Simpson, Northwest Territories, Canada

Now
43 °F

Passing clouds.


Feels Like: 39 °F
Forecast: 40 / 59 °F
Wind: 7 mph from Northwest

Location: Fort Simpson

Current Time: May 5, 2016 at 1:08:58 AM

Latest Report: May 5, 2016 at 12:00 AM


Visibility: 15 mi

Pressure: 29.79 "Hg

Humidity: 81%

Dew Point: 37 °F

Location of Fort SimpsonLocation

Historic Weather in Fort Simpson — Graph

°F

Fort Simpson Temperature Yesterday

Maximum temperature yesterday: 66 °F (at 12:00 AM)
Minimum temperature yesterday: 45 °F (at 11:00 PM)
Average temperature yesterday: 53 °F

High & Low Weather Summary for the Past Weeks

 TemperatureHumidityPressure
High79 °F (May 2, 4:00 PM)93% (Apr 28, 4:00 AM)30.55 "Hg (Apr 28, 4:00 AM)
Low14 °F (Apr 20, 6:00 AM)18% (May 3, 6:00 PM)29.52 "Hg (May 4, 8:00 AM)
Average45 °F52%30.02 "Hg
* Reported Apr 19 11:00 PM — May 4 11:00 PM, Fort Simpson, Weather by CustomWeather, © 2016

Note: Actual official high and low records may vary slightly from our data, if they occured in-between our weather recording intervals... More about our weather records

Advertising

Fort Simpson Weather History for the Previous 24 Hours

Scroll right to see more
 ConditionsComfort  
Time TempWeatherWind HumidityBarometerVisibility
11:00 PM
Wed, May 4
45 °FPartly sunny.7 mph76%29.77 "Hg15 mi
10:00 PM46 °FScattered showers. Partly sunny.17 mph71%29.74 "Hg15 mi
9:00 PM48 °FScattered showers. Partly sunny.7 mph76%29.73 "Hg15 mi
8:00 PM48 °FPartly sunny.9 mph76%29.71 "Hg15 mi
7:00 PM48 °FBroken clouds.13 mph82%29.68 "Hg15 mi
6:00 PM46 °FSprinkles. Mostly cloudy.9 mph87%29.68 "Hg15 mi
5:00 PM46 °FSprinkles. Overcast.17 mph87%29.67 "Hg15 mi
4:00 PM46 °FSprinkles. Low clouds.13 mph87%29.63 "Hg15 mi
3:00 PM46 °FSprinkles. Mostly cloudy.14 mph93%29.61 "Hg15 mi
2:00 PM48 °FSprinkles. Overcast.13 mph87%29.59 "Hg15 mi
1:00 PM50 °FSprinkles. Cloudy.12 mph88%29.56 "Hg15 mi
12:00 PM50 °FSprinkles. Mostly cloudy.13 mph88%29.55 "Hg15 mi
11:00 AM52 °FSprinkles. Mostly cloudy.12 mph77%29.55 "Hg15 mi
10:00 AM54 °FSprinkles. Mostly cloudy.9 mph63%29.55 "Hg15 mi
9:00 AM55 °FMostly cloudy.8 mph55%29.53 "Hg15 mi
8:00 AM52 °FBroken clouds.6 mph62%29.52 "Hg15 mi
7:00 AM57 °FPartly sunny.8 mph51%29.53 "Hg15 mi
6:00 AM55 °FPartly cloudy.7 mph55%29.54 "Hg15 mi
5:00 AM57 °FScattered showers. Partly cloudy.5 mph48%29.54 "Hg15 mi
4:00 AM63 °FOvercast.6 mph39%29.56 "Hg15 mi
3:00 AM61 °FOvercast.3 mph45%29.58 "Hg15 mi
2:00 AM64 °FSprinkles. Mostly cloudy.2 mph37%29.59 "Hg15 mi
1:00 AM66 °FPassing clouds.No wind32%29.57 "Hg15 mi
Weather by CustomWeather, © 2016

See weather overviewHow to use our weather pages